Simultaneous Nadir Overpasses (SNOs) Predictions

Prediction of SNOs between GOES-14 and NOAA-20 Satellite Orbit:

Table of predicted SNOs for the next 14.0 days since TLE Epoch: 7/27/2024
Index Date Time (GOES-14) GOES-14 Lat,Lon NOAA-20 Lat,Lon Distance(km) Time Diff (sec)
1 07/27/2024 20:51:59 0.35,-108.45 -0.47,-112.17 424.62 80
2 07/28/2024 20:35:54 0.34,-108.45 0.49,-107.63 92.04 80
3 07/31/2024 08:38:58 -0.36,-108.48 -0.40,-108.39 10.78 80
4 08/02/2024 20:39:29 0.38,-108.43 0.21,-109.17 84.14 80
5 08/03/2024 20:23:25 0.37,-108.43 1.24,-104.64 432.52 80
6 08/05/2024 08:42:32 -0.40,-108.48 -0.07,-109.92 163.94 80
7 08/06/2024 08:26:28 -0.39,-108.48 -1.11,-105.39 352.57 80
8 08/07/2024 20:45:44 0.42,-108.43 -0.09,-110.70 258.24 80
9 08/08/2024 20:29:39 0.40,-108.44 0.89,-106.16 258.79 80
